Year,Month,Day,Hour,Minute,Value (Times are PST for temperature in C)
2008,06,30,00,00,21.70
2008,06,30,00,01,21.70
2008,06,30,00,02,21.70
2008,06,30,00,03,21.60
2008,06,30,00,04,21.60
2008,06,30,00,05,21.60
2008,06,30,00,06,21.60
2008,06,30,00,07,21.60
2008,06,30,00,08,21.60
2008,06,30,00,09,21.50
2008,06,30,00,10,21.40
2008,06,30,00,11,21.40
2008,06,30,00,12,21.40
2008,06,30,00,13,21.30
2008,06,30,00,14,21.30
2008,06,30,00,15,21.30
2008,06,30,00,16,21.30
2008,06,30,00,17,21.20
2008,06,30,00,18,21.20
2008,06,30,00,19,21.20
2008,06,30,00,20,21.20
2008,06,30,00,21,21.10
2008,06,30,00,22,21.10
2008,06,30,00,23,21.10
2008,06,30,00,24,21.10
2008,06,30,00,25,21.10
2008,06,30,00,26,21.10
2008,06,30,00,27,21.10
2008,06,30,00,28,21.10
2008,06,30,00,29,21.10
2008,06,30,00,30,21.10
2008,06,30,00,31,21.10
2008,06,30,00,32,21.10
2008,06,30,00,33,21.00
2008,06,30,00,34,21.00
2008,06,30,00,35,21.00
2008,06,30,00,36,21.00
2008,06,30,00,37,21.00
2008,06,30,00,38,21.00
2008,06,30,00,39,21.00
2008,06,30,00,40,20.90
2008,06,30,00,41,20.90
2008,06,30,00,42,20.90
2008,06,30,00,43,20.90
2008,06,30,00,44,20.80
2008,06,30,00,45,20.80
2008,06,30,00,46,20.80
2008,06,30,00,47,20.80
2008,06,30,00,48,20.80
2008,06,30,00,49,20.80
2008,06,30,00,50,20.80
2008,06,30,00,51,20.80
2008,06,30,00,52,20.80
2008,06,30,00,53,20.80
2008,06,30,00,54,20.90
2008,06,30,00,55,20.90
2008,06,30,00,56,20.90
2008,06,30,00,57,21.00
2008,06,30,00,58,21.00
2008,06,30,00,59,21.00
2008,06,30,01,00,21.00
2008,06,30,01,01,21.00
2008,06,30,01,02,21.00
2008,06,30,01,03,21.10
2008,06,30,01,04,21.10
2008,06,30,01,05,21.10
2008,06,30,01,06,21.10
2008,06,30,01,07,21.10
2008,06,30,01,08,21.10
2008,06,30,01,09,21.10
2008,06,30,01,10,21.00
2008,06,30,01,11,21.00
2008,06,30,01,12,21.00
2008,06,30,01,13,21.00
2008,06,30,01,14,20.90
2008,06,30,01,15,20.90
2008,06,30,01,16,20.90
2008,06,30,01,17,20.90
2008,06,30,01,18,20.80
2008,06,30,01,19,20.80
2008,06,30,01,20,20.80
2008,06,30,01,21,20.90
2008,06,30,01,22,20.90
2008,06,30,01,23,21.00
2008,06,30,01,24,21.00
2008,06,30,01,25,21.00
2008,06,30,01,26,21.00
2008,06,30,01,27,21.10
2008,06,30,01,28,21.10
2008,06,30,01,29,21.20
2008,06,30,01,30,21.20
2008,06,30,01,31,21.20
2008,06,30,01,32,21.20
2008,06,30,01,33,21.30
2008,06,30,01,34,21.30
2008,06,30,01,35,21.30
2008,06,30,01,36,21.30
2008,06,30,01,37,21.30
2008,06,30,01,38,21.30
2008,06,30,01,39,21.30
2008,06,30,01,40,21.30
2008,06,30,01,41,21.20
2008,06,30,01,42,21.10
2008,06,30,01,43,21.00
2008,06,30,01,44,21.00
2008,06,30,01,45,20.90
2008,06,30,01,46,20.80
2008,06,30,01,47,20.80
2008,06,30,01,48,20.70
2008,06,30,01,49,20.60
2008,06,30,01,50,20.60
2008,06,30,01,51,20.50
2008,06,30,01,52,20.50
2008,06,30,01,53,20.40
2008,06,30,01,54,20.30
2008,06,30,01,55,20.20
2008,06,30,01,56,20.20
2008,06,30,01,57,20.20
2008,06,30,01,58,20.10
2008,06,30,01,59,20.10
2008,06,30,02,00,20.00
2008,06,30,02,01,19.90
2008,06,30,02,02,19.90
2008,06,30,02,03,19.90
2008,06,30,02,04,19.80
2008,06,30,02,05,19.70
2008,06,30,02,06,19.60
2008,06,30,02,07,19.50
2008,06,30,02,08,19.40
2008,06,30,02,09,19.30
2008,06,30,02,10,19.20
2008,06,30,02,11,19.10
2008,06,30,02,12,19.10
2008,06,30,02,13,18.90
2008,06,30,02,14,18.90
2008,06,30,02,15,18.80
2008,06,30,02,16,18.70
2008,06,30,02,17,18.70
2008,06,30,02,18,18.60
2008,06,30,02,19,18.60
2008,06,30,02,20,18.60
2008,06,30,02,21,18.60
2008,06,30,02,22,18.50
2008,06,30,02,23,18.50
2008,06,30,02,24,18.50
2008,06,30,02,25,18.50
2008,06,30,02,26,18.50
2008,06,30,02,27,18.50
2008,06,30,02,28,18.50
2008,06,30,02,29,18.40
2008,06,30,02,30,18.40
2008,06,30,02,31,18.40
2008,06,30,02,32,18.40
2008,06,30,02,33,18.40
2008,06,30,02,34,18.40
2008,06,30,02,35,18.30
2008,06,30,02,36,18.30
2008,06,30,02,37,18.30
2008,06,30,02,38,18.30
2008,06,30,02,39,18.30
2008,06,30,02,40,18.30
2008,06,30,02,41,18.30
2008,06,30,02,42,18.30
2008,06,30,02,43,18.30
2008,06,30,02,44,18.30
2008,06,30,02,45,18.30
2008,06,30,02,46,18.20
2008,06,30,02,47,18.20
2008,06,30,02,48,18.20
2008,06,30,02,49,18.20
2008,06,30,02,50,18.20
2008,06,30,02,51,18.20
2008,06,30,02,52,18.20
2008,06,30,02,53,18.20
2008,06,30,02,54,18.20
2008,06,30,02,55,18.20
2008,06,30,02,56,18.20
2008,06,30,02,57,18.20
2008,06,30,02,58,18.20
2008,06,30,02,59,18.20
2008,06,30,03,00,18.20
2008,06,30,03,01,18.20
2008,06,30,03,02,18.20
2008,06,30,03,03,18.20
2008,06,30,03,04,18.20
2008,06,30,03,05,18.20
2008,06,30,03,06,18.20
2008,06,30,03,07,18.20
2008,06,30,03,08,18.20
2008,06,30,03,09,18.20
2008,06,30,03,10,18.20
2008,06,30,03,11,18.20
2008,06,30,03,12,18.20
2008,06,30,03,13,18.20
2008,06,30,03,14,18.20
2008,06,30,03,15,18.20
2008,06,30,03,16,18.20
2008,06,30,03,17,18.20
2008,06,30,03,18,18.20
2008,06,30,03,19,18.20
2008,06,30,03,20,18.30
2008,06,30,03,21,18.30
2008,06,30,03,22,18.30
2008,06,30,03,23,18.40
2008,06,30,03,24,18.40
2008,06,30,03,25,18.40
2008,06,30,03,26,18.40
2008,06,30,03,27,18.40
2008,06,30,03,28,18.40
2008,06,30,03,29,18.50
2008,06,30,03,30,18.50
2008,06,30,03,31,18.50
2008,06,30,03,32,18.60
2008,06,30,03,33,18.60
2008,06,30,03,34,18.80
2008,06,30,03,35,18.80
2008,06,30,03,36,18.90
2008,06,30,03,37,18.90
2008,06,30,03,38,18.90
2008,06,30,03,39,18.90
2008,06,30,03,40,18.90
2008,06,30,03,41,18.90
2008,06,30,03,42,18.80
2008,06,30,03,43,18.70
2008,06,30,03,44,18.50
2008,06,30,03,45,18.20
2008,06,30,03,46,17.80
2008,06,30,03,47,17.50
2008,06,30,03,48,17.20
2008,06,30,03,49,16.90
2008,06,30,03,50,16.70
2008,06,30,03,51,16.40
2008,06,30,03,52,16.20
2008,06,30,03,53,16.10
2008,06,30,03,54,16.00
2008,06,30,03,55,15.90
2008,06,30,03,56,15.80
2008,06,30,03,57,15.80
2008,06,30,03,58,15.70
2008,06,30,03,59,15.70
2008,06,30,04,00,15.70
2008,06,30,04,01,15.70
2008,06,30,04,02,15.70
2008,06,30,04,03,15.70
2008,06,30,04,04,15.70
2008,06,30,04,05,15.70
2008,06,30,04,06,15.70
2008,06,30,04,07,15.70
2008,06,30,04,08,15.70
2008,06,30,04,09,15.70
2008,06,30,04,10,15.70
2008,06,30,04,11,15.70
2008,06,30,04,12,15.70
2008,06,30,04,13,15.70
2008,06,30,04,14,15.80
2008,06,30,04,15,15.80
2008,06,30,04,16,15.80
2008,06,30,04,17,15.80
2008,06,30,04,18,15.80
2008,06,30,04,19,15.80
2008,06,30,04,20,15.80
2008,06,30,04,21,15.80
2008,06,30,04,22,15.80
2008,06,30,04,23,15.80
2008,06,30,04,24,15.80
2008,06,30,04,25,15.80
2008,06,30,04,26,15.80
2008,06,30,04,27,15.80
2008,06,30,04,28,15.80
2008,06,30,04,29,15.80
2008,06,30,04,30,15.90
2008,06,30,04,31,15.90
2008,06,30,04,32,15.90
2008,06,30,04,33,15.90
2008,06,30,04,34,15.90
2008,06,30,04,35,15.90
2008,06,30,04,36,15.90
2008,06,30,04,37,15.90
2008,06,30,04,38,15.90
2008,06,30,04,39,16.00
2008,06,30,04,40,16.10
2008,06,30,04,41,16.10
2008,06,30,04,42,16.10
2008,06,30,04,43,16.10
2008,06,30,04,44,16.10
2008,06,30,04,45,16.10
2008,06,30,04,46,16.10
2008,06,30,04,47,16.10
2008,06,30,04,48,16.10
2008,06,30,04,49,16.10
2008,06,30,04,50,16.10
2008,06,30,04,51,16.10
2008,06,30,04,52,16.10
2008,06,30,04,53,16.10
2008,06,30,04,54,16.10
2008,06,30,04,55,16.10
2008,06,30,04,56,16.20
2008,06,30,04,57,16.20
2008,06,30,04,58,16.20
2008,06,30,04,59,16.20
2008,06,30,05,00,16.20
2008,06,30,05,01,16.20
2008,06,30,05,02,16.30
2008,06,30,05,03,16.30
2008,06,30,05,04,16.30
2008,06,30,05,05,16.50
2008,06,30,05,06,16.60
2008,06,30,05,07,16.70
2008,06,30,05,08,16.80
2008,06,30,05,09,16.90
2008,06,30,05,10,17.00
2008,06,30,05,11,17.10
2008,06,30,05,12,17.30
2008,06,30,05,13,17.40
2008,06,30,05,14,17.50
2008,06,30,05,15,17.50
2008,06,30,05,16,17.50
2008,06,30,05,17,17.50
2008,06,30,05,18,17.50
2008,06,30,05,19,17.50
2008,06,30,05,20,17.50
2008,06,30,05,21,17.50
2008,06,30,05,22,17.50
2008,06,30,05,23,17.40
2008,06,30,05,24,17.40
2008,06,30,05,25,17.40
2008,06,30,05,26,17.30
2008,06,30,05,27,17.30
2008,06,30,05,28,17.30
2008,06,30,05,29,17.30
2008,06,30,05,30,17.30
2008,06,30,05,31,17.20
2008,06,30,05,32,17.20
2008,06,30,05,33,17.20
2008,06,30,05,34,17.10
2008,06,30,05,35,17.10
2008,06,30,05,36,17.10
2008,06,30,05,37,17.10
2008,06,30,05,38,17.10
2008,06,30,05,39,17.10
2008,06,30,05,40,17.10
2008,06,30,05,41,17.00
2008,06,30,05,42,17.00
2008,06,30,05,43,17.00
2008,06,30,05,44,17.00
2008,06,30,05,45,16.90
2008,06,30,05,46,16.90
2008,06,30,05,47,16.90
2008,06,30,05,48,16.90
2008,06,30,05,49,16.90
2008,06,30,05,50,16.90
2008,06,30,05,51,16.90
2008,06,30,05,52,16.90
2008,06,30,05,53,16.80
2008,06,30,05,54,16.80
2008,06,30,05,55,16.80
2008,06,30,05,56,16.80
2008,06,30,05,57,16.80
2008,06,30,05,58,16.80
2008,06,30,05,59,16.70
2008,06,30,06,00,16.70
2008,06,30,06,01,16.70
2008,06,30,06,02,16.70
2008,06,30,06,03,16.70
2008,06,30,06,04,16.70
2008,06,30,06,05,16.60
2008,06,30,06,06,16.60
2008,06,30,06,07,16.60
2008,06,30,06,08,16.60
2008,06,30,06,09,16.60
2008,06,30,06,10,16.60
2008,06,30,06,11,16.60
2008,06,30,06,12,16.60
2008,06,30,06,13,16.60
2008,06,30,06,14,16.60
2008,06,30,06,15,16.60
2008,06,30,06,16,16.60
2008,06,30,06,17,16.60
2008,06,30,06,18,16.70
2008,06,30,06,19,16.70
2008,06,30,06,20,16.70
2008,06,30,06,21,16.70
2008,06,30,06,22,16.70
2008,06,30,06,23,16.70
2008,06,30,06,24,16.70
2008,06,30,06,25,16.70
2008,06,30,06,26,16.70
2008,06,30,06,27,16.80
2008,06,30,06,28,16.80
2008,06,30,06,29,16.80
2008,06,30,06,30,16.80
2008,06,30,06,31,16.90
2008,06,30,06,32,16.90
2008,06,30,06,33,16.90
2008,06,30,06,34,16.90
2008,06,30,06,35,16.90
2008,06,30,06,36,17.00
2008,06,30,06,37,17.00
2008,06,30,06,38,17.00
2008,06,30,06,39,17.00
2008,06,30,06,40,17.00
2008,06,30,06,41,17.00
2008,06,30,06,42,17.10
2008,06,30,06,43,17.10
2008,06,30,06,44,17.10
2008,06,30,06,45,17.10
2008,06,30,06,46,17.10
2008,06,30,06,47,17.10
2008,06,30,06,48,17.20
2008,06,30,06,49,17.20
2008,06,30,06,50,17.20
2008,06,30,06,51,17.20
2008,06,30,06,52,17.30
2008,06,30,06,53,17.30
2008,06,30,06,54,17.30
2008,06,30,06,55,17.30
2008,06,30,06,56,17.30
2008,06,30,06,57,17.30
2008,06,30,06,58,17.30
2008,06,30,06,59,17.30
2008,06,30,07,00,17.30
2008,06,30,07,01,17.30
2008,06,30,07,02,17.40
2008,06,30,07,03,17.40
2008,06,30,07,04,17.40
2008,06,30,07,05,17.40
2008,06,30,07,06,17.40
2008,06,30,07,07,17.40
2008,06,30,07,08,17.50
2008,06,30,07,09,17.50
2008,06,30,07,10,17.50
2008,06,30,07,11,17.50
2008,06,30,07,12,17.50
2008,06,30,07,13,17.50
2008,06,30,07,14,17.60
2008,06,30,07,15,17.60
2008,06,30,07,16,17.60
2008,06,30,07,17,17.60
2008,06,30,07,18,17.60
2008,06,30,07,19,17.70
2008,06,30,07,20,17.70
2008,06,30,07,21,17.70
2008,06,30,07,22,17.70
2008,06,30,07,23,17.80
2008,06,30,07,24,17.80
2008,06,30,07,25,17.80
2008,06,30,07,26,17.80
2008,06,30,07,27,17.80
2008,06,30,07,28,17.90
2008,06,30,07,29,17.90
2008,06,30,07,30,17.90
2008,06,30,07,31,17.90
2008,06,30,07,32,17.90
2008,06,30,07,33,17.90
2008,06,30,07,34,17.90
2008,06,30,07,35,17.90
2008,06,30,07,36,18.00
2008,06,30,07,37,18.10
2008,06,30,07,38,18.10
2008,06,30,07,39,18.10
2008,06,30,07,40,18.10
2008,06,30,07,41,18.20
2008,06,30,07,42,18.20
2008,06,30,07,43,18.20
2008,06,30,07,44,18.20
2008,06,30,07,45,18.20
2008,06,30,07,46,18.30
2008,06,30,07,47,18.30
2008,06,30,07,48,18.30
2008,06,30,07,49,18.40
2008,06,30,07,50,18.40
2008,06,30,07,51,18.40
2008,06,30,07,52,18.40
2008,06,30,07,53,18.50
2008,06,30,07,54,18.50
2008,06,30,07,55,18.50
2008,06,30,07,56,18.50
2008,06,30,07,57,18.60
2008,06,30,07,58,18.60
2008,06,30,07,59,18.60
2008,06,30,08,00,18.70
2008,06,30,08,01,18.70
2008,06,30,08,02,18.70
2008,06,30,08,03,18.80
2008,06,30,08,04,18.80
2008,06,30,08,05,18.80
2008,06,30,08,06,18.90
2008,06,30,08,07,18.90
2008,06,30,08,08,18.90
2008,06,30,08,09,18.90
2008,06,30,08,10,18.90
2008,06,30,08,11,18.90
2008,06,30,08,12,18.90
2008,06,30,08,13,19.00
2008,06,30,08,14,19.10
2008,06,30,08,15,19.10
2008,06,30,08,16,19.10
2008,06,30,08,17,19.10
2008,06,30,08,18,19.10
2008,06,30,08,19,19.10
2008,06,30,08,20,19.10
2008,06,30,08,21,19.20
2008,06,30,08,22,19.20
2008,06,30,08,23,19.20
2008,06,30,08,24,19.30
2008,06,30,08,25,19.30
2008,06,30,08,26,19.30
2008,06,30,08,27,19.30
2008,06,30,08,28,19.30
2008,06,30,08,29,19.40
2008,06,30,08,30,19.40
2008,06,30,08,31,19.40
2008,06,30,08,32,19.40
2008,06,30,08,33,19.50
2008,06,30,08,34,19.50
2008,06,30,08,35,19.50
2008,06,30,08,36,19.60
2008,06,30,08,37,19.60
2008,06,30,08,38,19.60
2008,06,30,08,39,19.70
2008,06,30,08,40,19.70
2008,06,30,08,41,19.70
2008,06,30,08,42,19.80
2008,06,30,08,43,19.80
2008,06,30,08,44,19.80
2008,06,30,08,45,19.90
2008,06,30,08,46,19.90
2008,06,30,08,47,19.90
2008,06,30,08,48,19.90
2008,06,30,08,49,19.90
2008,06,30,08,50,19.90
2008,06,30,08,51,20.00
2008,06,30,08,52,20.10
2008,06,30,08,53,20.10
2008,06,30,08,54,20.10
2008,06,30,08,55,20.20
2008,06,30,08,56,20.20
2008,06,30,08,57,20.20
2008,06,30,08,58,20.20
2008,06,30,08,59,20.30
2008,06,30,09,00,20.30
2008,06,30,09,01,20.40
2008,06,30,09,02,20.40
2008,06,30,09,03,20.50
2008,06,30,09,04,20.60
2008,06,30,09,05,20.70
2008,06,30,09,06,20.80
2008,06,30,09,07,20.90
2008,06,30,09,08,21.00
2008,06,30,09,09,21.00
2008,06,30,09,10,21.10
2008,06,30,09,11,21.30
2008,06,30,09,12,21.30
2008,06,30,09,13,21.40
2008,06,30,09,14,21.60
2008,06,30,09,15,21.70
2008,06,30,09,16,21.90
2008,06,30,09,17,22.00
2008,06,30,09,18,22.10
2008,06,30,09,19,22.10
2008,06,30,09,20,22.20
2008,06,30,09,21,22.20
2008,06,30,09,22,22.30
2008,06,30,09,23,22.50
2008,06,30,09,24,22.50
2008,06,30,09,25,22.60
2008,06,30,09,26,22.60
2008,06,30,09,27,22.60
2008,06,30,09,28,22.60
2008,06,30,09,29,22.70
2008,06,30,09,30,22.80
2008,06,30,09,31,22.90
2008,06,30,09,32,22.90
2008,06,30,09,33,22.90
2008,06,30,09,34,22.90
2008,06,30,09,35,22.90
2008,06,30,09,36,22.90
2008,06,30,09,37,22.90
2008,06,30,09,38,22.90
2008,06,30,09,39,23.10
2008,06,30,09,40,23.10
2008,06,30,09,41,23.10
2008,06,30,09,42,23.20
2008,06,30,09,43,23.20
2008,06,30,09,44,23.20
2008,06,30,09,45,23.20
2008,06,30,09,46,23.20
2008,06,30,09,47,23.10
2008,06,30,09,48,23.10
2008,06,30,09,49,23.10
2008,06,30,09,50,23.10
2008,06,30,09,51,23.20
2008,06,30,09,52,23.30
2008,06,30,09,53,23.30
2008,06,30,09,54,23.30
2008,06,30,09,55,23.30
2008,06,30,09,56,23.30
2008,06,30,09,57,23.30
2008,06,30,09,58,23.40
2008,06,30,09,59,23.40
2008,06,30,10,00,23.50
2008,06,30,10,01,23.60
2008,06,30,10,02,23.70
2008,06,30,10,03,23.70
2008,06,30,10,04,23.90
2008,06,30,10,05,24.00
2008,06,30,10,06,24.10
2008,06,30,10,07,24.10
2008,06,30,10,08,24.20
2008,06,30,10,09,24.30
2008,06,30,10,10,24.40
2008,06,30,10,11,24.50
2008,06,30,10,12,24.60
2008,06,30,10,13,24.70
2008,06,30,10,14,24.80
2008,06,30,10,15,24.90
2008,06,30,10,16,25.00
2008,06,30,10,17,25.10
2008,06,30,10,18,25.20
2008,06,30,10,19,25.20
2008,06,30,10,20,25.30
2008,06,30,10,21,25.40
2008,06,30,10,22,25.50
2008,06,30,10,23,25.50
2008,06,30,10,24,25.60
2008,06,30,10,25,25.70
2008,06,30,10,26,25.70
2008,06,30,10,27,25.70
2008,06,30,10,28,25.60
2008,06,30,10,29,25.40
2008,06,30,10,30,25.20
2008,06,30,10,31,24.90
2008,06,30,10,32,24.80
2008,06,30,10,33,24.70
2008,06,30,10,34,24.60
2008,06,30,10,35,24.40
2008,06,30,10,36,24.40
2008,06,30,10,37,24.40
2008,06,30,10,38,24.30
2008,06,30,10,39,24.20
2008,06,30,10,40,24.20
2008,06,30,10,41,24.10
2008,06,30,10,42,24.10
2008,06,30,10,43,24.00
2008,06,30,10,44,23.90
2008,06,30,10,45,23.90
2008,06,30,10,46,23.90
2008,06,30,10,47,24.00
2008,06,30,10,48,24.10
2008,06,30,10,49,24.20
2008,06,30,10,50,24.20
2008,06,30,10,51,24.20
2008,06,30,10,52,24.20
2008,06,30,10,53,24.10
2008,06,30,10,54,24.10
2008,06,30,10,55,24.10
2008,06,30,10,56,24.20
2008,06,30,10,57,24.30
2008,06,30,10,58,24.20
2008,06,30,10,59,24.20
2008,06,30,11,00,24.10
2008,06,30,11,01,24.10
2008,06,30,11,02,24.10
2008,06,30,11,03,23.90
2008,06,30,11,04,24.00
2008,06,30,11,05,24.10
2008,06,30,11,06,24.10
2008,06,30,11,07,24.10
2008,06,30,11,08,24.10
2008,06,30,11,09,24.10
2008,06,30,11,10,24.10
2008,06,30,11,11,24.10
2008,06,30,11,12,24.10
2008,06,30,11,13,24.10
2008,06,30,11,14,24.10
2008,06,30,11,15,24.20
2008,06,30,11,16,24.30
2008,06,30,11,17,24.40
2008,06,30,11,18,24.50
2008,06,30,11,19,24.40
2008,06,30,11,20,24.40
2008,06,30,11,21,24.50
2008,06,30,11,22,24.60
2008,06,30,11,23,24.70
2008,06,30,11,24,24.90
2008,06,30,11,25,25.10
2008,06,30,11,26,25.30
2008,06,30,11,27,25.30
2008,06,30,11,28,25.30
2008,06,30,11,29,25.30
2008,06,30,11,30,25.30
2008,06,30,11,31,25.40
2008,06,30,11,32,25.50
2008,06,30,11,33,25.60
2008,06,30,11,34,25.50
2008,06,30,11,35,25.50
2008,06,30,11,36,25.50
2008,06,30,11,37,25.50
2008,06,30,11,38,25.50
2008,06,30,11,39,25.40
2008,06,30,11,40,25.40
2008,06,30,11,41,25.40
2008,06,30,11,42,25.40
2008,06,30,11,43,25.40
2008,06,30,11,44,25.40
2008,06,30,11,45,25.50
2008,06,30,11,46,25.50
2008,06,30,11,47,25.50
2008,06,30,11,48,25.50
2008,06,30,11,49,25.50
2008,06,30,11,50,25.50
2008,06,30,11,51,25.50
2008,06,30,11,52,25.40
2008,06,30,11,53,25.40
2008,06,30,11,54,25.40
2008,06,30,11,55,25.40
2008,06,30,11,56,25.50
2008,06,30,11,57,25.60
2008,06,30,11,58,25.70
2008,06,30,11,59,25.80
2008,06,30,12,00,25.80
2008,06,30,12,01,25.90
2008,06,30,12,02,25.90
2008,06,30,12,03,25.90
2008,06,30,12,04,25.90
2008,06,30,12,05,25.90
2008,06,30,12,06,26.00
2008,06,30,12,07,26.00
2008,06,30,12,08,26.10
2008,06,30,12,09,26.20
2008,06,30,12,10,26.30
2008,06,30,12,11,26.40
2008,06,30,12,12,26.40
2008,06,30,12,13,26.50
2008,06,30,12,14,26.60
2008,06,30,12,15,26.60
2008,06,30,12,16,26.50
2008,06,30,12,17,26.40
2008,06,30,12,18,26.30
2008,06,30,12,19,26.30
2008,06,30,12,20,26.40
2008,06,30,12,21,26.40
2008,06,30,12,22,26.40
2008,06,30,12,23,26.40
2008,06,30,12,24,26.40
2008,06,30,12,25,26.40
2008,06,30,12,26,26.30
2008,06,30,12,27,26.20
2008,06,30,12,28,26.10
2008,06,30,12,29,26.10
2008,06,30,12,30,26.10
2008,06,30,12,31,26.00
2008,06,30,12,32,26.00
2008,06,30,12,33,25.90
2008,06,30,12,34,26.00
2008,06,30,12,35,26.00
2008,06,30,12,36,26.00
2008,06,30,12,37,25.90
2008,06,30,12,38,25.90
2008,06,30,12,39,25.90
2008,06,30,12,40,25.80
2008,06,30,12,41,25.70
2008,06,30,12,42,25.80
2008,06,30,12,43,25.80
2008,06,30,12,44,25.80
2008,06,30,12,45,25.70
2008,06,30,12,46,25.70
2008,06,30,12,47,25.80
2008,06,30,12,48,25.90
2008,06,30,12,49,26.00
2008,06,30,12,50,26.20
2008,06,30,12,51,26.30
2008,06,30,12,52,26.30
2008,06,30,12,53,26.40
2008,06,30,12,54,26.40
2008,06,30,12,55,26.60
2008,06,30,12,56,26.50
2008,06,30,12,57,26.40
2008,06,30,12,58,26.30
2008,06,30,12,59,26.40
2008,06,30,13,00,26.40
2008,06,30,13,01,26.40
2008,06,30,13,02,26.30
2008,06,30,13,03,26.30
2008,06,30,13,04,26.40
2008,06,30,13,05,26.40
2008,06,30,13,06,26.40
2008,06,30,13,07,26.40
2008,06,30,13,08,26.30
2008,06,30,13,09,26.30
2008,06,30,13,10,26.30
2008,06,30,13,11,26.20
2008,06,30,13,12,26.20
2008,06,30,13,13,26.20
2008,06,30,13,14,26.30
2008,06,30,13,15,26.40
2008,06,30,13,16,26.60
2008,06,30,13,17,26.60
2008,06,30,13,18,26.60
2008,06,30,13,19,26.60
2008,06,30,13,20,26.70
2008,06,30,13,21,26.80
2008,06,30,13,22,26.90
2008,06,30,13,23,27.10
2008,06,30,13,24,27.20
2008,06,30,13,25,27.20
2008,06,30,13,26,27.10
2008,06,30,13,27,27.10
2008,06,30,13,28,27.10
2008,06,30,13,29,27.20
2008,06,30,13,30,27.20
2008,06,30,13,31,27.20
2008,06,30,13,32,27.20
2008,06,30,13,33,27.20
2008,06,30,13,34,27.20
2008,06,30,13,35,27.30
2008,06,30,13,36,27.30
2008,06,30,13,37,27.30
2008,06,30,13,38,27.40
2008,06,30,13,39,27.40
2008,06,30,13,40,27.40
2008,06,30,13,41,27.40
2008,06,30,13,42,27.30
2008,06,30,13,43,27.30
2008,06,30,13,44,27.30
2008,06,30,13,45,27.30
2008,06,30,13,46,27.30
2008,06,30,13,47,27.30
2008,06,30,13,48,27.30
2008,06,30,13,49,27.30
2008,06,30,13,50,27.30
2008,06,30,13,51,27.30
2008,06,30,13,52,27.30
2008,06,30,13,53,27.30
2008,06,30,13,54,27.20
2008,06,30,13,55,27.20
2008,06,30,13,56,27.20
2008,06,30,13,57,27.30
2008,06,30,13,58,27.30
2008,06,30,13,59,27.30
2008,06,30,14,00,27.40
2008,06,30,14,01,27.60
2008,06,30,14,02,27.70
2008,06,30,14,03,27.80
2008,06,30,14,04,27.90
2008,06,30,14,05,27.90
2008,06,30,14,06,28.00
2008,06,30,14,07,28.20
2008,06,30,14,08,28.30
2008,06,30,14,09,28.40
2008,06,30,14,10,28.40
2008,06,30,14,11,28.60
2008,06,30,14,12,28.70
2008,06,30,14,13,28.70
2008,06,30,14,14,28.60
2008,06,30,14,15,28.60
2008,06,30,14,16,28.70
2008,06,30,14,17,28.80
2008,06,30,14,18,28.90
2008,06,30,14,19,28.90
2008,06,30,14,20,28.90
2008,06,30,14,21,28.90
2008,06,30,14,22,28.90
2008,06,30,14,23,28.80
2008,06,30,14,24,28.70
2008,06,30,14,25,28.60
2008,06,30,14,26,28.40
2008,06,30,14,27,28.30
2008,06,30,14,28,28.20
2008,06,30,14,29,28.10
2008,06,30,14,30,28.00
2008,06,30,14,31,27.90
2008,06,30,14,32,27.90
2008,06,30,14,33,27.90
2008,06,30,14,34,27.90
2008,06,30,14,35,27.90
2008,06,30,14,36,27.90
2008,06,30,14,37,27.90
2008,06,30,14,38,27.90
2008,06,30,14,39,28.00
2008,06,30,14,40,28.10
2008,06,30,14,41,28.10
2008,06,30,14,42,28.10
2008,06,30,14,43,28.00
2008,06,30,14,44,28.10
2008,06,30,14,45,28.10
2008,06,30,14,46,28.10
2008,06,30,14,47,28.00
2008,06,30,14,48,28.00
2008,06,30,14,49,27.90
2008,06,30,14,50,27.80
2008,06,30,14,51,27.70
2008,06,30,14,52,27.60
2008,06,30,14,53,27.60
2008,06,30,14,54,27.50
2008,06,30,14,55,27.40
2008,06,30,14,56,27.40
2008,06,30,14,57,27.40
2008,06,30,14,58,27.40
2008,06,30,14,59,27.40
2008,06,30,15,00,27.60
2008,06,30,15,01,27.60
2008,06,30,15,02,27.70
2008,06,30,15,03,27.70
2008,06,30,15,04,27.70
2008,06,30,15,05,27.70
2008,06,30,15,06,27.70
2008,06,30,15,07,27.60
2008,06,30,15,08,27.60
2008,06,30,15,09,27.60
2008,06,30,15,10,27.60
2008,06,30,15,11,27.70
2008,06,30,15,12,27.60
2008,06,30,15,13,27.60
2008,06,30,15,14,27.60
2008,06,30,15,15,27.50
2008,06,30,15,16,27.40
2008,06,30,15,17,27.40
2008,06,30,15,18,27.40
2008,06,30,15,19,27.30
2008,06,30,15,20,27.30
2008,06,30,15,21,27.20
2008,06,30,15,22,27.10
2008,06,30,15,23,27.00
2008,06,30,15,24,26.90
2008,06,30,15,25,26.90
2008,06,30,15,26,26.90
2008,06,30,15,27,26.80
2008,06,30,15,28,26.80
2008,06,30,15,29,26.80
2008,06,30,15,30,26.80
2008,06,30,15,31,26.80
2008,06,30,15,32,26.80
2008,06,30,15,33,26.80
2008,06,30,15,34,26.70
2008,06,30,15,35,26.60
2008,06,30,15,36,26.60
2008,06,30,15,37,26.40
2008,06,30,15,38,26.60
2008,06,30,15,39,26.60
2008,06,30,15,40,26.60
2008,06,30,15,41,26.70
2008,06,30,15,42,26.80
2008,06,30,15,43,27.00
2008,06,30,15,44,27.10
2008,06,30,15,45,27.10
2008,06,30,15,46,27.20
2008,06,30,15,47,27.10
2008,06,30,15,48,27.10
2008,06,30,15,49,27.10
2008,06,30,15,50,27.00
2008,06,30,15,51,26.90
2008,06,30,15,52,26.80
2008,06,30,15,53,26.90
2008,06,30,15,54,26.80
2008,06,30,15,55,26.80
2008,06,30,15,56,26.80
2008,06,30,15,57,26.70
2008,06,30,15,58,26.70
2008,06,30,15,59,26.70
2008,06,30,16,00,26.70
2008,06,30,16,01,26.60
2008,06,30,16,02,26.60
2008,06,30,16,03,26.60
2008,06,30,16,04,26.60
2008,06,30,16,05,26.40
2008,06,30,16,06,26.40
2008,06,30,16,07,26.30
2008,06,30,16,08,26.30
2008,06,30,16,09,26.30
2008,06,30,16,10,26.30
2008,06,30,16,11,26.40
2008,06,30,16,12,26.40
2008,06,30,16,13,26.60
2008,06,30,16,14,26.60
2008,06,30,16,15,26.60
2008,06,30,16,16,26.60
2008,06,30,16,17,26.60
2008,06,30,16,18,26.70
2008,06,30,16,19,26.70
2008,06,30,16,20,26.80
2008,06,30,16,21,26.90
2008,06,30,16,22,26.90
2008,06,30,16,23,27.00
2008,06,30,16,24,27.10
2008,06,30,16,25,27.10
2008,06,30,16,26,27.20
2008,06,30,16,27,27.30
2008,06,30,16,28,27.30
2008,06,30,16,29,27.40
2008,06,30,16,30,27.50
2008,06,30,16,31,27.60
2008,06,30,16,32,27.70
2008,06,30,16,33,27.70
2008,06,30,16,34,27.80
2008,06,30,16,35,27.80
2008,06,30,16,36,27.90
2008,06,30,16,37,28.00
2008,06,30,16,38,28.00
2008,06,30,16,39,28.00
2008,06,30,16,40,28.10
2008,06,30,16,41,28.10
2008,06,30,16,42,28.00
2008,06,30,16,43,28.00
2008,06,30,16,44,27.90
2008,06,30,16,45,27.90
2008,06,30,16,46,27.90
2008,06,30,16,47,27.90
2008,06,30,16,48,27.90
2008,06,30,16,49,27.90
2008,06,30,16,50,27.90
2008,06,30,16,51,27.70
2008,06,30,16,52,27.60
2008,06,30,16,53,27.40
2008,06,30,16,54,27.30
2008,06,30,16,55,27.30
2008,06,30,16,56,27.30
2008,06,30,16,57,27.20
2008,06,30,16,58,27.20
2008,06,30,16,59,27.20
2008,06,30,17,00,27.20
2008,06,30,17,01,27.20
2008,06,30,17,02,27.30
2008,06,30,17,03,27.30
2008,06,30,17,04,27.30
2008,06,30,17,05,27.40
2008,06,30,17,06,27.50
2008,06,30,17,07,27.60
2008,06,30,17,08,27.70
2008,06,30,17,09,27.70
2008,06,30,17,10,27.70
2008,06,30,17,11,27.70
2008,06,30,17,12,27.80
2008,06,30,17,13,27.70
2008,06,30,17,14,27.70
2008,06,30,17,15,27.80
2008,06,30,17,16,27.80
2008,06,30,17,17,27.90
2008,06,30,17,18,28.00
2008,06,30,17,19,28.10